Prudhoe Bay, AK

3:59 PM AKST on January 18, 2017 (GMT -0900)
Deadhorse

Weather History for PASC - January, 2013

Change the Weather History Date:

Thursday, January 3, 2013

  Actual Average Record
Temperature  
Mean Temperature 0 °F -  
Max Temperature 6 °F -5 °F 34 °F (2017)
Min Temperature -7 °F -18 °F -45 °F (1987)
Degree Days  
Heating Degree Days 66    
Moisture  
Dew Point -6 °F    
Average Humidity 85    
Maximum Humidity 92    
Minimum Humidity 56    
Precipitation  
Precipitation 0.00 in - - ()
Sea Level Pressure  
Sea Level Pressure 29.79 in    
Wind  
Wind Speed 13 mph (East)    
Max Wind Speed 23 mph    
Max Gust Speed -    
Visibility 6 miles    
Events Snow    
Averages and records for this station are not official NWS values.
T = Trace of Precipitation, MM = Missing Value Source: NWS Daily Summary

Daily Weather History Graph

Daily Weather History Graph

Search for Another Location

Airport or City:

Trip Planner

Search our weather history database for the weather conditions in past years. The results will help you decide how hot, cold, wet, or windy it might be!

Date:

Astronomy

Dec. 31, 1969 Rise Set
Actual Time Sun does not rise Sun does not rise
Civil Twilight 10:42 AM AKST 3:15 PM AKST
Nautical Twilight 8:58 AM AKST 4:59 PM AKST
Astronomical Twilight 7:38 AM AKST 6:18 PM AKST
Moon No Moon Rise 11:08 AM AKST (1/3)
Length of Visible Light 4h 32m
Length of Day
0h 00m
Waning Gibbous, 64% of the Moon is Illuminated
Jan 3
Waning Gibbous
Jan 4
Last Quarter
Jan 11
New
Jan 18
First Quarter
Jan 26
Full

Hourly Weather History & Observations

Time (AKST) Temp. Windchill Dew Point Humidity Pressure Visibility Wind Dir Wind Speed Gust Speed Precip Events Conditions
12:53 AM -4.0 °F -22.1 °F -7.6 °F 85% 29.72 in 10.0 mi ENE 11.5 mph - N/A   Clear
1:53 AM -4.0 °F -22.1 °F -7.6 °F 85% 29.72 in 10.0 mi ENE 11.5 mph - N/A   Clear
2:53 AM -5.8 °F -23.4 °F -9.4 °F 84% 29.73 in 10.0 mi ENE 10.4 mph - N/A   Clear
3:53 AM -5.8 °F -23.4 °F -9.4 °F 84% 29.73 in 10.0 mi ENE 10.4 mph - N/A   Clear
4:53 AM -7.6 °F -26.6 °F -11.2 °F 84% 29.74 in 8.0 mi ENE 11.5 mph - N/A   Clear
5:53 AM -5.8 °F -26.0 °F -9.4 °F 84% 29.74 in 8.0 mi ENE 13.8 mph - N/A   Clear
6:53 AM -5.8 °F -26.0 °F -7.6 °F 92% 29.74 in 5.0 mi ENE 13.8 mph - N/A   Clear
7:53 AM -4.0 °F -23.7 °F -7.6 °F 85% 29.74 in 5.0 mi ENE 13.8 mph - N/A   Clear
8:53 AM -5.8 °F -25.2 °F -7.6 °F 92% 29.75 in 5.0 mi East 12.7 mph - N/A   Partly Cloudy
9:53 AM -5.8 °F -22.4 °F -9.4 °F 84% 29.77 in 10.0 mi East 9.2 mph - N/A   Clear
10:53 AM -5.8 °F -24.4 °F -13.0 °F 71% 29.78 in 10.0 mi ENE 11.5 mph - N/A   Mostly Cloudy
11:53 AM -5.8 °F -24.4 °F -9.4 °F 84% 29.78 in 10.0 mi East 11.5 mph - N/A   Mostly Cloudy
12:53 PM -4.0 °F -23.0 °F -7.6 °F 85% 29.80 in 10.0 mi ENE 12.7 mph - N/A   Mostly Cloudy
1:53 PM -4.0 °F -22.1 °F -7.6 °F 85% 29.80 in 10.0 mi East 11.5 mph - N/A   Scattered Clouds
2:53 PM -2.2 °F -19.9 °F -5.8 °F 85% 29.81 in 10.0 mi East 11.5 mph - N/A   Scattered Clouds
3:53 PM -4.0 °F -23.7 °F -5.8 °F 92% 29.81 in 5.0 mi East 13.8 mph - N/A   Clear
4:53 PM -2.2 °F -23.5 °F -5.8 °F 85% 29.80 in 5.0 mi East 17.3 mph - N/A   Clear
5:33 PM -0.4 °F -20.5 °F -4.0 °F 85% 29.80 in 4.0 mi East 16.1 mph - N/A Snow Light Snow
5:53 PM -0.4 °F -21.7 °F -2.2 °F 92% 29.81 in 3.0 mi East 18.4 mph - N/A Snow Blowing Snow
6:53 PM -0.4 °F -20.5 °F -2.2 °F 92% 29.82 in 4.0 mi East 16.1 mph - N/A Snow Blowing Snow
7:53 PM -0.4 °F -21.7 °F -2.2 °F 92% 29.82 in 3.0 mi East 18.4 mph - N/A Snow Blowing Snow
7:55 PM 6.8 °F -12.4 °F -5.8 °F 56% 29.81 in 3.0 mi East 18.4 mph - N/A Snow Blowing Snow
8:24 PM 1.4 °F -18.8 °F -2.2 °F 85% 29.82 in 2.0 mi East 17.3 mph - N/A Snow Blowing Snow
8:53 PM 1.4 °F -17.6 °F -2.2 °F 85% 29.83 in 2.0 mi East 15.0 mph - N/A Snow Blowing Snow
9:53 PM 1.4 °F -17.6 °F -2.2 °F 85% 29.84 in 2.5 mi East 15.0 mph - N/A Snow Blowing Snow
10:53 PM -0.4 °F -21.7 °F -2.2 °F 92% 29.84 in 4.0 mi East 18.4 mph - N/A Snow Blowing Snow
11:53 PM 1.4 °F -21.4 °F -2.2 °F 85% 29.85 in 3.0 mi East 23.0 mph - N/A Snow Blowing Snow